Regional Weather Roundup
Issued by NWS Bismarck, ND

Home | Current Version | Previous Version | Text Only | Print | Product List | Glossary On
Versions: 1 2 3 4 5 6 7 8 9 10 11 12 13 14 15 16 17 18 19 20 21 22 23 24 25 26 27 28 29 30 31 32 33 34 35 36 37 38 39 40 41 42 43 44 45 46 47 48 49 50
056
ASUS43 KBIS 110010
RWRBIS

NWR BROADCAST TEXT
NATIONAL WEATHER SERVICE BISMARCK ND
600 PM CST WED FEB 10 2016

NOTE: "FAIR" INDICATES FEW OR NO CLOUDS BELOW 12,000 FEET WITH NO
SIGNIFICANT WEATHER AND/OR OBSTRUCTIONS TO VISIBILITY.


CITY           SKY/WX    TMP DP  RH WIND       PRES   REMARKS
WILLISTON      CLOUDY    28  24  85 N10       30.14R WCI  19
MINOT          CLOUDY    14   6  70 NE5       30.17R HAZE    WCI   6
MINOT AFB      CLOUDY    12   8  84 E3        30.17R
BISMARCK       CLOUDY    21  13  71 NE10      30.16R WCI  10
DICKINSON      CLOUDY    30  24  78 N12       30.08R
GARRISON         N/A     15  11  83 NE7       30.15R WCI   5
HETTINGER ARPT CLOUDY    34  27  75 N16       30.08R
JAMESTOWN      FLURRIES   9   4  80 E10       30.18R WCI  -5
BEACH          CLOUDY    32  32 100 N13       30.13R
CARRINGTON     LGT SNOW   9   7  92 E8        30.20R WCI  -4
HAZEN          CLOUDY    19  14  79 NE8       30.17R WCI   9
LINTON         CLOUDY    18  14  86 NE7       30.16R WCI   8
MANDAN         CLOUDY    19  16  86 NE7       30.14R WCI  10
OAKES          CLOUDY    10   7  85 NE14      30.18R WCI  -5
RUGBY          CLOUDY     7   3  85 E7        30.21R WCI  -5
STANLEY        CLOUDY    18  18 100 NE7       30.14R WCI   8
TIOGA          CLOUDY    23  23 100 NE9       30.18R WCI  13
WATFORD CITY   CLOUDY    27  25  93 NE9       30.13R WCI  17
$$

CITY           SKY/WX    TMP DP  RH WIND       PRES   REMARKS
GRAND FORKS    CLOUDY     9  -1  64 N7        30.27R WCI  -2
GRAND FORKS AF CLOUDY     7  -2  67 NE5       30.27R WCI  -2
DEVILS LAKE    FLURRIES   6   1  80 E10       30.23R WCI  -9
FARGO          CLOUDY    12   0  58 N12       30.24R WCI  -2
CAVALIER       CLOUDY     7   0  72 NE7       30.29R WCI  -5
GRAFTON        MOCLDY     7   0  72 N7        30.30R WCI  -5
GWINNER        CLOUDY    12   9  85 NE10      30.20R WCI  -1
LANGDON        CLOUDY     7   0  72 E5        30.20S WCI  -2
ROLLA          CLOUDY     3   0  85 SE6       30.20R WCI  -8
WALHALLA       FAIR       7   1  78 NE8       30.29R WCI  -6
$$

CITY           SKY/WX    TMP DP  RH WIND       PRES   REMARKS
ABERDEEN       CLOUDY    16  10  77 NE9       30.16R WCI   4
MOBRIDGE       CLOUDY    26  18  71 NE10      30.09R WCI  16
BUFFALO          N/A     42  30  62 N9        29.99R
RAPID CITY     CLEAR     55  23  28 NW24G33   30.01R
GLASGOW        CLOUDY    33  26  75 NE6       30.13S
SIDNEY         CLOUDY    36  25  64 N12G20    30.13R
WOLF POINT     CLOUDY    36  26  67 N8        30.16R
GLENDIVE       CLOUDY    34  28  80 N12       30.14R
MILES CITY     CLEAR     42  32  67 NW8       30.11R
BAKER          CLEAR     35  28  75 N10       30.09R
$$

CITY           SKY/WX    TMP DP  RH WIND       PRES   REMARKS
BILLINGS       PTCLDY    59  22  24 NW10      30.08S
GREAT FALLS    CLOUDY    52  26  36 SW16      30.05F
REGINA         FRZ DRZL  18  14  86 N13       30.17R WCI   4
ESTEVAN        CLOUDY    18  14  86 E5        30.15R WCI  11
$$





USA.gov is the U.S. government's official web portal to all federal, state and local government web resources and services.